DW8673 Jerrabomberra AU current weather conditions

sailwx.info

Wind from 112

Air temperature 9.4° C
Dewpoint -0.2° C

Last reported at 2015-Sep-02 11:43 UTC.
Time now 2015-Sep-02 12:57 UTC

Location: S 35°23' E 149°12'.
View on Google Maps.

See reports from other nearby stations

  
Tides and Currents Weather Stations Pressure Air Temp Water Temp Dewpoint Dewpoint Depression Visibility Wind Speed Wind Dir Waves Ship Positions
date/time (UTC)wind fromknots sea level pressurealtimeterstation pressurevisibilityair tempwater tempwave heightnotes
2015-Sep-02 11:43 112 9.4
2015-Sep-02 11:33 090 9.4
2015-Sep-02 11:13 270 9.4
2015-Sep-02 11:08 112 9.4
2015-Sep-02 11:03 112 9.4
2015-Sep-02 10:43 045 9.4
2015-Sep-02 10:08 245 0 gusting 0 9.4
2015-Sep-02 09:43 270 9.4
2015-Sep-02 09:33 157 9.4
2015-Sep-02 09:18 090 9.4
2015-Sep-02 09:08 245 9.4
2015-Sep-02 09:03 184 9.4
2015-Sep-02 08:48 158 0 gusting 0 10.0
2015-Sep-02 08:33 068 10.6
2015-Sep-02 08:18 068 11.7
2015-Sep-02 08:13 068 11.7
2015-Sep-02 08:08 337 11.7
2015-Sep-02 07:48 248 13.3
2015-Sep-02 07:33 272 13.9
2015-Sep-02 07:03 336 0 gusting 2 15.0
2015-Sep-02 06:48 316 1 gusting 4 16.1
2015-Sep-02 06:43 304 2 gusting 4 16.7
2015-Sep-02 06:38 281 2 gusting 4 17.8
2015-Sep-02 06:33 314 2 gusting 5 18.3
2015-Sep-02 06:18 333 2 gusting 4 18.9
2015-Sep-02 06:08 329 2 gusting 6 18.9
2015-Sep-02 06:03 022 2 gusting 6 18.9
2015-Sep-02 05:48 310 3 gusting 5 18.9
2015-Sep-02 05:38 340 3 gusting 5 18.9
2015-Sep-02 05:33 288 4 gusting 6 18.9
2015-Sep-02 05:18 310 4 gusting 6 18.9
2015-Sep-02 05:13 303 4 gusting 6 18.9
2015-Sep-02 05:03 296 4 gusting 6 19.4
2015-Sep-02 04:48 307 4 gusting 6 19.4
2015-Sep-02 04:43 317 4 gusting 6 19.4
2015-Sep-02 04:38 325 4 gusting 7 19.4
2015-Sep-02 04:18 312 2 gusting 5 19.4
2015-Sep-02 04:13 317 3 gusting 6 19.4
2015-Sep-02 04:08 356 3 gusting 6 19.4
2015-Sep-02 04:03 331 2 gusting 4 20.0
2015-Sep-02 03:48 314 2 gusting 5 19.4
2015-Sep-02 03:43 302 2 gusting 5 19.4
2015-Sep-02 03:18 295 2 gusting 5 18.9
2015-Sep-02 03:13 358 1 gusting 4 18.9
2015-Sep-02 03:08 042 1 gusting 2 18.9
2015-Sep-02 02:48 257 1 gusting 4 18.3
2015-Sep-02 02:43 340 2 gusting 4 17.8
2015-Sep-02 02:38 252 2 gusting 5 17.8
2015-Sep-02 02:33 344 1 gusting 6 17.2
2015-Sep-02 02:18 002 3 gusting 5 17.2
2015-Sep-02 02:13 346 1 gusting 2 17.2
2015-Sep-02 02:08 285 2 gusting 4 17.2
2015-Sep-02 02:03 285 1 gusting 5 16.7
2015-Sep-02 01:43 267 1 gusting 4 16.1
2015-Sep-02 01:33 170 0 gusting 2 16.1
2015-Sep-02 01:18 312 0 gusting 4 15.0
2015-Sep-02 01:08 002 1 gusting 2 14.4
2015-Sep-02 01:03 342 2 gusting 5 13.9
2015-Sep-02 00:43 274 1 gusting 2 13.3
2015-Sep-02 00:38 13.3
2015-Sep-02 00:33 286 2 gusting 4 12.8
2015-Sep-02 00:18 039 1 gusting 4 12.2
2015-Sep-01 23:48 132 10.0
2015-Sep-01 23:38 096 0 gusting 1 10.0
2015-Sep-01 23:33 351 0 gusting 2 9.4
2015-Sep-01 23:18 199 0 gusting 0 8.3
2015-Sep-01 23:13 056 7.8
2015-Sep-01 23:08 298 1 gusting 2 7.2
2015-Sep-01 22:48 309 0 gusting 1 6.7
2015-Sep-01 22:43 264 6.7
2015-Sep-01 22:38 325 0 gusting 0 6.1
2015-Sep-01 22:33 267 0 gusting 2 5.6
2015-Sep-01 22:08 090 5.6
2015-Sep-01 22:03 4.4
2015-Sep-01 21:43 2.2
2015-Sep-01 21:38 068 1.7
2015-Sep-01 21:33 062 1.7
2015-Sep-01 21:18 112 0.6
2015-Sep-01 21:13 112 0.6
2015-Sep-01 21:08 112 0.6
2015-Sep-01 21:03 112 -0.0
2015-Sep-01 20:48 112 -0.0
2015-Sep-01 20:43 112 -0.6
2015-Sep-01 20:33 112 -0.6
2015-Sep-01 20:03 112 -0.6
2015-Sep-01 19:48 112 -0.6
2015-Sep-01 19:43 112 -0.6
2015-Sep-01 19:38 112 -1.1
2015-Sep-01 19:33 112 -1.1
2015-Sep-01 19:18 112 -1.1
2015-Sep-01 19:08 112 -1.1
2015-Sep-01 19:03 112 -1.1
2015-Sep-01 18:48 112 -0.6
2015-Sep-01 18:43 112 -1.1
2015-Sep-01 18:38 112 -0.6
2015-Sep-01 18:33 112 -1.1
2015-Sep-01 18:13 112 -0.6
2015-Sep-01 18:08 045 -0.6
2015-Sep-01 18:03 045 -0.6
2015-Sep-01 17:48 158 -0.6
2015-Sep-01 17:43 338 -0.6
2015-Sep-01 17:38 158 -0.6
2015-Sep-01 17:33 256 -0.6
2015-Sep-01 17:18 158 -0.0
2015-Sep-01 17:13 292 -0.0
2015-Sep-01 17:08 201 -0.0
2015-Sep-01 17:03 090 -0.0
2015-Sep-01 16:48 068 -0.0
2015-Sep-01 16:43 068 -0.0
2015-Sep-01 16:38 068 -0.0
2015-Sep-01 16:33 068 -0.0
2015-Sep-01 16:18 068 0.6
2015-Sep-01 16:13 022 0.6
2015-Sep-01 16:08 022 0.6
2015-Sep-01 16:03 022 0.6
2015-Sep-01 15:48 112 0.6
2015-Sep-01 15:43 262 0.6
2015-Sep-01 15:38 022 0.6
2015-Sep-01 15:33 006 1.1
2015-Sep-01 15:18 112 1.1
2015-Sep-01 15:13 112 1.1
2015-Sep-01 15:08 236 1.1
2015-Sep-01 15:03 292 1.1
2015-Sep-01 14:48 292 1.1
2015-Sep-01 14:43 112 1.7
2015-Sep-01 14:38 112 1.7
2015-Sep-01 14:33 112 1.7
2015-Sep-01 14:18 135 1.7
2015-Sep-01 14:13 135 1.7
2015-Sep-01 14:08 135 1.7
2015-Sep-01 14:03 135 1.7
2015-Sep-01 13:48 135 1.7
2015-Sep-01 13:43 135 1.7
2015-Sep-01 13:38 135 1.7
2015-Sep-01 13:33 135 2.2
2015-Sep-01 13:18 135 2.2
2015-Sep-01 13:13 090 2.2
2015-Sep-01 13:08 090 2.2
2015-Sep-01 13:03 090 2.2
2015-Sep-01 12:48 090 2.8
2015-Sep-01 12:43 090 2.8
2015-Sep-01 12:38 090 2.8
2015-Sep-01 12:33 090 2.8
2015-Sep-01 12:18 202 2.8
2015-Sep-01 12:13 202 2.8
2015-Sep-01 12:08 230 3.3
2015-Sep-01 12:03 177 3.3
2015-Sep-01 11:48 135 3.3
2015-Sep-01 11:43 135 3.9
2015-Sep-01 11:38 154 3.9
2015-Sep-01 11:33 270 3.9
2015-Sep-01 11:18 270 4.4
2015-Sep-01 11:13 270 4.4
2015-Sep-01 11:08 112 5.0
2015-Sep-01 11:03 112 5.0
2015-Sep-01 10:48 090 5.6
2015-Sep-01 10:43 090 6.1
2015-Sep-01 10:38 090 6.7
2015-Sep-01 10:33 092 0 gusting 0 6.7
2015-Sep-01 10:18 102 0 gusting 0 6.7
2015-Sep-01 10:13 090 7.2
2015-Sep-01 10:08 074 7.2
2015-Sep-01 10:03 090 0 gusting 0 7.2
2015-Sep-01 09:48 096 7.8
2015-Sep-01 09:43 073 0 gusting 0 7.8
2015-Sep-01 09:38 104 0 gusting 0 7.8
2015-Sep-01 09:33 353 0 gusting 2 8.3
2015-Sep-01 09:18 104 0 gusting 1 8.3
2015-Sep-01 09:13 103 0 gusting 0 8.3
2015-Sep-01 09:08 102 0 gusting 1 8.9
2015-Sep-01 09:03 102 0 gusting 1 8.9
2015-Sep-01 08:48 093 0 gusting 1 8.9
2015-Sep-01 08:43 113 0 gusting 0 9.4
2015-Sep-01 08:38 102 0 gusting 1 9.4
2015-Sep-01 08:33 036 0 gusting 2 9.4
2015-Sep-01 08:18 038 10.0
2015-Sep-01 08:13 135 0 gusting 0 10.0
2015-Sep-01 08:08 071 0 gusting 1 10.0
2015-Sep-01 08:03 355 0 gusting 4 10.6
2015-Sep-01 07:48 019 1 gusting 4 11.1
2015-Sep-01 07:43 323 1 gusting 2 11.1
2015-Sep-01 07:38 002 0 gusting 2 11.7
2015-Sep-01 07:33 035 0 gusting 4 11.7
2015-Sep-01 07:18 359 1 gusting 4 12.2
2015-Sep-01 07:13 062 1 gusting 4 12.8
2015-Sep-01 07:08 236 2 gusting 5 12.8
2015-Sep-01 07:03 040 3 gusting 6 13.3
2015-Sep-01 06:48 332 1 gusting 5 15.0
2015-Sep-01 06:43 341 0 gusting 4 15.0
2015-Sep-01 06:38 348 3 gusting 6 15.0
2015-Sep-01 06:33 002 2 gusting 6 15.0
2015-Sep-01 06:18 312 3 gusting 6 15.6
2015-Sep-01 06:13 335 2 gusting 6 16.1
2015-Sep-01 06:08 338 2 gusting 5 16.1
2015-Sep-01 06:03 320 4 gusting 7 15.6
2015-Sep-01 05:48 325 4 gusting 6 16.1
2015-Sep-01 05:43 326 4 gusting 6 16.1
2015-Sep-01 05:38 007 2 gusting 5 16.1
2015-Sep-01 05:33 356 2 gusting 6 16.7
2015-Sep-01 05:18 281 1 gusting 5 16.7
2015-Sep-01 05:13 031 2 gusting 5 16.7
2015-Sep-01 05:08 347 2 gusting 7 16.7
2015-Sep-01 05:03 302 4 gusting 6 16.7
2015-Sep-01 04:48 333 4 gusting 6 16.7
2015-Sep-01 04:43 008 2 gusting 6 17.2
2015-Sep-01 04:38 336 2 gusting 5 17.2
2015-Sep-01 04:33 118 3 gusting 11 16.7
2015-Sep-01 04:18 331 3 gusting 6 17.2
2015-Sep-01 04:13 301 2 gusting 6 17.8
2015-Sep-01 04:08 033 2 gusting 6 17.8
2015-Sep-01 04:03 299 2 gusting 5 17.8
2015-Sep-01 03:48 316 3 gusting 5 17.2
2015-Sep-01 03:43 323 1 gusting 6 17.8
2015-Sep-01 03:38 261 1 gusting 6 17.2
2015-Sep-01 03:33 293 3 gusting 6 17.2
2015-Sep-01 03:18 352 1 gusting 5 17.2
2015-Sep-01 03:13 305 4 gusting 6 16.7
2015-Sep-01 03:08 345 3 gusting 5 16.7
2015-Sep-01 03:03 310 2 gusting 5 16.1
2015-Sep-01 02:48 304 2 gusting 4 16.7
2015-Sep-01 02:43 319 2 gusting 5 16.7
2015-Sep-01 02:38 329 0 gusting 4 16.7
2015-Sep-01 02:33 248 2 gusting 6 16.1
2015-Sep-01 02:18 283 2 gusting 5 15.6
2015-Sep-01 02:13 044 1 gusting 6 15.6
2015-Sep-01 02:08 334 4 gusting 6 15.6
2015-Sep-01 02:03 314 1 gusting 5 15.6
2015-Sep-01 01:48 293 2 gusting 4 14.4
2015-Sep-01 01:43 349 2 gusting 5 14.4
2015-Sep-01 01:38 316 2 gusting 6 14.4
2015-Sep-01 01:33 301 1 gusting 5 14.4
2015-Sep-01 01:18 346 1 gusting 4 13.3
2015-Sep-01 01:13 337 2 gusting 6 12.8
2015-Sep-01 01:08 311 2 gusting 5 13.3
2015-Sep-01 01:03 272 2 gusting 4 12.8
2015-Sep-01 00:48 328 2 gusting 2 11.7
2015-Sep-01 00:43 263 1 gusting 4 11.7
2015-Sep-01 00:38 286 1 gusting 4 11.1
2015-Sep-01 00:33 278 2 gusting 5 10.6
2015-Sep-01 00:18 323 2 gusting 4 9.4
2015-Sep-01 00:13 306 1 gusting 2 9.4
2015-Sep-01 00:08 335 1 gusting 4 9.4
2015-Sep-01 00:03 318 1 gusting 4 8.3
2015-Aug-31 23:48 295 1 gusting 1 7.2
2015-Aug-31 23:43 146 0 gusting 1 7.8
2015-Aug-31 23:38 297 1 gusting 2 6.7
2015-Aug-31 23:33 347 0 gusting 2 6.1
2015-Aug-31 23:18 229 1 gusting 1 5.0
2015-Aug-31 23:13 098 0 gusting 2 5.0
2015-Aug-31 23:08 316 1 gusting 2 5.0
2015-Aug-31 23:03 131 5.0
2015-Aug-31 22:48 218 0 gusting 1 4.4
2015-Aug-31 22:43 111 0 gusting 1 3.9
2015-Aug-31 22:38 343 1 gusting 2 3.9
2015-Aug-31 22:33 302 0 gusting 2 3.9
2015-Aug-31 22:18 015 3.9
2015-Aug-31 22:13 331 3.3
2015-Aug-31 22:08 349 0 gusting 1 3.3
2015-Aug-31 22:03 335 0 gusting 1 3.3
2015-Aug-31 21:48 264 1.7
2015-Aug-31 21:43 186 1.7
2015-Aug-31 21:38 090 1.1
2015-Aug-31 21:33 090 0.6
2015-Aug-31 21:18 090 -0.6
2015-Aug-31 21:13 090 -1.1
2015-Aug-31 21:08 090 -1.1
2015-Aug-31 21:03 090 -1.1
2015-Aug-31 20:48 090 -1.7
2015-Aug-31 20:43 090 -1.7
2015-Aug-31 20:38 090 -1.7
2015-Aug-31 20:33 090 -1.1
2015-Aug-31 20:18 090 -1.7
2015-Aug-31 20:13 090 -1.1
2015-Aug-31 20:08 090 -1.1
2015-Aug-31 20:03 090 -1.1
2015-Aug-31 19:48 090 -1.1
2015-Aug-31 19:43 090 -1.1
2015-Aug-31 19:38 112 -1.1
2015-Aug-31 19:33 112 -0.6
2015-Aug-31 19:18 135 -0.6
2015-Aug-31 19:13 135 -0.6
2015-Aug-31 19:08 135 -0.6
2015-Aug-31 19:03 135 -0.6
2015-Aug-31 18:48 180 -0.6
2015-Aug-31 18:43 225 -0.6
2015-Aug-31 18:38 225 -0.6
2015-Aug-31 18:33 112 -0.0
2015-Aug-31 18:13 090 -0.0
2015-Aug-31 18:08 090 -0.0
2015-Aug-31 18:03 073 0.6
2015-Aug-31 17:48 135 0.6
2015-Aug-31 17:43 135 0.6
2015-Aug-31 17:38 090 0.6
2015-Aug-31 17:33 090 0.6
2015-Aug-31 17:18 090 0.6
2015-Aug-31 17:13 090 0.6
2015-Aug-31 17:08 090 0.6
2015-Aug-31 17:03 090 0.6
2015-Aug-31 16:48 090 1.1
2015-Aug-31 16:43 090 1.1
2015-Aug-31 16:38 090 1.1
2015-Aug-31 16:33 090 1.1
2015-Aug-31 16:18 090 1.1
2015-Aug-31 16:13 090 1.1
2015-Aug-31 16:08 090 1.7
2015-Aug-31 16:03 090 1.7
2015-Aug-31 15:48 180 1.7
2015-Aug-31 15:43 225 1.7
2015-Aug-31 15:38 225 1.7
2015-Aug-31 15:33 225 1.7
2015-Aug-31 15:18 292 2.2
2015-Aug-31 15:13 112 2.2
2015-Aug-31 15:08 112 2.2
2015-Aug-31 15:03 112 2.8
2015-Aug-31 14:48 112 2.8
2015-Aug-31 14:43 112 2.8
2015-Aug-31 14:38 112 2.8
2015-Aug-31 14:33 112 3.3
2015-Aug-31 14:18 192 3.3
2015-Aug-31 14:13 095 3.3
2015-Aug-31 14:08 090 3.3
2015-Aug-31 14:03 090 3.9
2015-Aug-31 13:48 135 3.9
2015-Aug-31 13:43 105 3.9
2015-Aug-31 13:38 045 3.9
2015-Aug-31 13:33 090 0 gusting 0 4.4
2015-Aug-31 13:18 261 4.4
2015-Aug-31 13:13 315 0 gusting 1 5.0
2015-Aug-31 13:08 338 0 gusting 0 5.0
2015-Aug-31 13:03 296 5.6
2015-Aug-31 12:48 170 0 gusting 0 6.1
2015-Aug-31 12:43 246 0 gusting 1 6.7
2015-Aug-31 12:38 254 0 gusting 1 6.7
2015-Aug-31 12:33 247 1 gusting 5 7.2
2015-Aug-31 12:18 162 1 gusting 4 7.8
2015-Aug-31 12:13 161 2 gusting 5 7.8
2015-Aug-31 12:08 135 1 gusting 4 7.8
2015-Aug-31 12:03 116 1 gusting 6 7.8